Location: downtown San Diego
(32.7310°N, 117.1990°W)
Time: 02:04:13
(UTC-07:00)

OAO 3 Copernicus - Pass Details

Date: 14 June 2018
Orbit: 696 x 704 km, 35.0° (Epoch: 19 October)

Event Time Altitude Azimuth Distance (km) Brightness Sun altitude
Rises 22:17:32 0° 266° (W) 3,070 8.1 -23.3°
Reaches altitude 10° 22:19:57 10° 268° (W) 2,152 7.2 -23.6°
Maximum altitude 22:24:59 72° 353° (N) 731 4.4 -24.2°
Enters shadow 22:26:37 42° 65° (ENE) 980 4.9 -24.4°
